Location: ?kun?ru
(16.3916°N, 80.8194°E)
Time: 14:55:32
(UTC+00:00)

Cosmos 967 Rocket - Pass Details

Date: 19 May 2025
Orbit: 951 x 984 km, 65.8° (Epoch: 17 June)

Event Time Altitude Azimuth Distance (km) Brightness Sun altitude
Rises 23:07:50 0° 336° (NNW) 3,658 7.5 -13.4°
Reaches altitude 10° 23:10:23 10° 335° (NNW) 2,715 6.8 -12.9°
Maximum altitude 23:16:45 80° 249° (WSW) 996 4.5 -11.5°
Drops below altitude 10° 23:23:08 10° 163° (SSE) 2,728 6.8 -10.1°
Sets 23:25:43 0° 162° (SSE) 3,676 7.5 -9.5°
